User: anonymous   Login
Location: Unspecified
(0.0000°N, 0.0000°E)
Time: 13:26:47
(UTC+00:00)
Language:

POSAT 1 - Orbit

View from above orbital plane
View from above orbital plane
View from above satellite
View from above satellite

Ground track
Ground track

The orbit data is extracted from the following two-line orbital elements,

1 22829U 93061G   21015.77827551 -.00000010  00000-0  13770-4 0  9997
2 22829  98.9043  31.0942 0010667  63.9804 109.5019 14.31076103425010
Epoch (UTC): 15 January 2021 18:40:43
Eccentricity: 0.0010667
inclination: 98.9043°
perigee height: 780 km
apogee height: 796 km
right ascension of ascending node: 31.0942°
argument of perigee: 63.9804°
revolutions per day: 14.31076103
mean anomaly at epoch: 109.5019°
orbit number at epoch: 42501

The dashed part of the orbit path shows where the satellite is in the earth's shadow,  

DLR